sat.trackr.live / text

‹ back to catalog

GLOBALSTAR M097

NORAD 39072 · 2013-005A

PAYLOAD ACTIVE UNKNOWN

§ Identity

Operator
Country
GLOB
Launch date
2013-02-06
Launch site
TYMSC
Launch vehicle
Mass (kg)
RCS (m²)
4.34

Purposes: comms

External: N2YO · Heavens-Above · Gunter

§ Orbital elements

Epoch: 2026-09-20T04:24:17.163072Z

Period
114.08 min
Inclination
52.0058°
Eccentricity
0.0000469
Mean motion
12.62271306 rev/d
Perigee alt
1,413.2 km
Apogee alt
1,413.9 km
Semi-major
7,791.7 km
B*
6.6096e-5
RAAN
314.1580°
Arg perigee
122.0655°
Mean anomaly
238.0258°
Rev number
62,890

§ Raw data

GLOBALSTAR M0971 39072U 13005A   26263.18353198 -.00000092  00000+0  66096-4 0  99992 39072  52.0058 314.1580 0000469 122.0655 238.0258 12.62271306628908

JSON: /api/v1/satellites/39072 · /tle

For live sub-satellite position, see the globe view (requires WebGL).

§ Visibility from observer

Set your observer location to see the next 7 days of passes ≥ 10°. The values pass through the URL so the page stays shareable.

No JS? Fill the form by hand. The geolocation button needs JavaScript.